METAR Formatted Surface Weather Observation
Issued by NWS

Home | Current Version | Previous Version | Text Only | Print | Product List | Glossary On
Versions: 1 2 3 4 5 6 7 8 9 10 11 12 13 14 15 16 17 18 19 20 21 22 23 24 25 26 27 28 29 30 31 32 33 34 35 36 37 38 39 40 41 42 43 44 45 46 47 48 49 50
000
SAUS44 KFWD 281159 COR
MTRNQI
METAR KNQI 281156Z 01010KT 10SM SCT014 BKN021 BKN250 27/25 A2987 RMK
AO2 RAB08E20 SLP111 CB DSNT SE TCU DSNT NE P0000 60000 T02720250
10283 20267 55002



USA.gov is the U.S. government's official web portal to all federal, state and local government web resources and services.